FLOCK 1E-8

Last updated on Wed Jun 22 2016 17:36:59 GMT+0000 (Coordinated Universal Time)

1 40727U 98067GK 16174.51699118 .13529802 12497-4 99088-3 0 9993 2 40727 51.6085 344.8259 0014402 298.1778 62.3735 16.39485529 54024

Satellite not in orbit